星链-30431 (STARLINK-30431 )

导读

STARLINK-30431是美国太空探索技术公司(SpaceX)星链(Starlink)星座中的一颗卫星,于2023年9月12日发射升空。星链计划旨在搭建全球覆盖的低轨互联网通信星座,提供高速宽带服务,该卫星采用平板设计,搭载氪工质霍尔推进器,具备自主避撞能力,服役寿命末期会主动离轨再入大气层焚毁。

基本信息
目录编号:
57852
目录名称:
STARLINK-30431
国际标识:
2023-141N
轨道中心:
EARTH
卫星名称:
星链-30431
卫星全名:
星链-30431 (STARLINK-30431 )
卫星状态:
在轨 (已飞行1010 天)
发射日期:
2023-09-12 UTC
国别 :
美国 (US)
星等 :
--
轨道信息
数据来源 国际轨道数据 AOE轨道数据
星历时间 2026-06-17T15:13:39+0800
1天前
查看轨道信息
2026-06-17T06:00:00+0800
1天前
查看轨道信息
半长轴 6853.381km 6853.364km
偏心率 0.0001561 0.0001429
轨道倾角 53.160° 53.155°
近地点辐角 78.168° 102.859°
升交点赤经 181.108° 182.890°
平近点角 281.950° 298.117°
近地点 474.174km 474.247km
远地点 476.314km 476.207km
周期 94.106分钟 94.106分钟
每日圈数 15.301906 15.301962
详细信息
固有亮度:
5
最大亮度:
0.3
卫星平台:
Starlink v2.0 mini
覆盖范围:
全球
运营商:
太空探索技术公司
运营商所在国:
美国
制造商(研发单位):
太空探索技术公司
制造商所在国:
美国
使用方式:
暂无
卫星简介
星链(Starlink)计划是由太空探索技术公司(SpaceX)提出的一个巨型低轨卫星互联网星座项目,计划在2019年至2024年间在太空搭建由约1.2万颗卫星组成的“星链”网络,其中1584颗将部署在地球上空550千米处的近地轨道,并从2020年开始工作。该卫星仍在工作。
2D轨道图
3D轨道图
轨道高度分析图
轨道倾角分析图
轨道综合分析图
查看轨道综合分析图